Simultaneous Nadir Overpasses (SNOs) Predictions

Prediction of SNOs between METOP-B and TERRA Satellite Orbit:

Table of predicted SNOs for the next 14.0 days since TLE Epoch: 8/26/2023
Index Date (METOP-B) Time (METOP-B) Lat,Lon (METOP-B) SZA (METOP-B ) Date (TERRA) Time (TERRA) Lat,Lon (TERRA) SZA (TERRA ) Distance(km) Time Diff (sec)
1 08/26/2023 03:20:33 80.69, 159.88 71.38 08/26/2023 03:21:28 80.69, 159.87 71.39 0.50 55
2 08/26/2023 04:11:10 -80.78, -31.44 108.43 08/26/2023 04:10:47 -80.77, -31.54 108.45 1.75 23
3 08/28/2023 19:32:08 80.72, -82.68 72.38 08/28/2023 19:32:11 80.72, -82.50 72.39 3.16 3
4 08/28/2023 20:22:16 -81.24, 96.69 106.06 08/28/2023 20:21:02 -81.49, 96.25 105.96 28.53 74
5 08/31/2023 10:53:04 -80.72,-132.80 106.66 08/31/2023 10:53:33 -80.73,-132.82 106.65 0.42 29
6 08/31/2023 11:43:41 80.80, 35.75 73.53 08/31/2023 11:42:53 80.80, 35.62 73.50 2.31 48
7 09/03/2023 02:14:01 80.70, 176.50 74.26 09/03/2023 02:14:56 80.70, 176.52 74.28 0.63 55
8 09/03/2023 03:04:39 -80.76, -15.11 105.59 09/03/2023 03:04:16 -80.76, -15.18 105.61 1.27 23
9 09/05/2023 18:25:35 80.75, -65.53 75.38 09/05/2023 18:25:38 80.75, -65.69 75.36 2.85 3
10 09/05/2023 19:15:03 -81.32, 129.68 101.15 09/05/2023 19:13:50 -81.94, 129.45 100.90 69.53 73
11 09/08/2023 09:46:33 -80.71,-116.45 103.72 09/08/2023 09:47:00 -80.71,-116.42 103.71 0.61 27



Historial Predications of SNOs between METOP-B and TERRA
